Weather Roundup
Issued by NWS Chicago, IL

Home | Current Version | Previous Version | Graphics & Text | Print | Product List | Glossary On
Versions: 1 2 3 4 5 6 7 8 9 10 11 12 13 14 15 16 17 18 19 20 21 22 23 24 25 26 27 28 29 30 31 32 33 34 35 36 37 38 39 40 41 42 43 44 45 46 47 48 49 50
000
NZUS59 KLOT 230208
HRRLOT

CHICAGO AREA WEATHER ROUNDUP
NATIONAL WEATHER SERVICE CHICAGO/ROMEOVILLE IL
800 PM CST SUN JAN 22 2017

NOTE: "FAIR" INDICATES FEW OR NO CLOUDS BELOW 12,000 FEET WITH NO
SIGNIFICANT WEATHER AND/OR OBSTRUCTIONS TO VISIBILITY.

* THESE STATIONS ARE NOT UNDER NWS QUALITY CONTROL. THEY ALSO MAY NOT
  REPORT WEATHER SUCH AS PRECIPITATION OR FOG.

ILZ005-006-012>014-019>023-230300-
NORTHEAST ILLINOIS

CITY           SKY/WX    TMP DP  RH WIND       PRES   REMARKS
OHARE          CLOUDY    40  37  89 N7        29.65R
MIDWAY         CLOUDY    42  36  79 N9        29.65R
AURORA         CLOUDY    38  36  92 N10       29.66R FOG
LANSING*       CLOUDY    40  39  97 N7        29.65R
JOLIET*        CLOUDY    42  40  91 N3        29.66R
WAUKEGAN       CLOUDY    40  37  89 CALM      29.66R
DUPAGE AIRPORT CLOUDY    39  36  89 N9        29.65R
WHEELING       CLOUDY    40  37  89 N6        29.67R
KANKAKEE*      CLOUDY    40  38  93 N7        29.65R
MORRIS*        CLOUDY    39  37  92 N5        29.65R FOG
LEWIS AIRPORT* CLOUDY    41  40  96 NE16      29.65R
NORTHERLY ISL    N/A     37  36  96 N7          N/A
$$

WIZ051-052-058>065-066-070>072-230300-
SOUTHEAST WISCONSIN

CITY           SKY/WX    TMP DP  RH WIND       PRES   REMARKS
MILWAUKEE      CLOUDY    40  36  86 N12       29.66F
KENOSHA*       CLOUDY    39  35  86 N6        29.65F
RACINE*        CLOUDY    38  36  92 N6        29.67F FOG
WAUKESHA       CLOUDY    34  34 100 N5        29.68S FOG     WCI  30
WEST BEND      CLOUDY    36  36 100 CALM      29.68S
$$

INZ001>003-010>013-019-020-230300-
NORTHWEST INDIANA

CITY           SKY/WX    TMP DP  RH WIND       PRES   REMARKS
GARY*          MOCLDY    39  39 100 N14       29.65R FOG
MICHIGAN CITY* NOT AVBL
RENSSELAER*    NOT AVBL
VALPARAISO     CLOUDY    41  41 100 N9        29.64R FOG
$$

LMZ740>746-230300-
SOUTHERN LAKE MICHIGAN

STATION/POSITION TIME  SKY/WX   TEMP WIND        PRES    VSBY
                                AIR  DIR/SP/G
                 (UTC)          (F)  (DEG/KT/KT) (MB)    (MI)
HARRISON CRIB    0140            36  340/  8/  8   N/A
BURNHAM HARBOR   0200            37  350/  7/ 10   N/A
CALUMET HARBOR   0130                350/  7/  9 1003.7R
BURNS HARBOR     0100            36   10/ 10/ 14 1004.4
MICHIGAN CITY    0140            37  350/ 11/ 11   N/A
$$

ABBREVIATIONS USED IN REMARKS
   TC - TEMPERATURE IN CELSIUS
  WCI - WIND CHILL INDEX
   HX - HEAT INDEX
  VSB - VISIBILITY
$$



USA.gov is the U.S. government's official web portal to all federal, state and local government web resources and services.